User: anonymous   Login
Location: Walnut Point State Park
(39.6958°N, 88.0345°W)
Time: 16:33:23
(UTC-05:00)
Language:

ATLAS 3B R/B - Orbit

View from above orbital plane
View from above orbital plane
View from above satellite
View from above satellite

Ground track
Ground track

The orbit data is extracted from the following two-line orbital elements,

1 28538U 05004B   18141.92926830 0.00000000  00000-0  00000-0 0    02
2 28538  63.8301 162.7234 0112000 145.4413 214.5587 13.43112038    08
Epoch (UTC): 21 May 2018 22:18:08
Eccentricity: 0.0112000
inclination: 63.8301°
perigee height: 1014 km
apogee height: 1181 km
right ascension of ascending node: 162.7234°
argument of perigee: 145.4413°
revolutions per day: 13.43112038
mean anomaly at epoch: 214.5587°
orbit number at epoch: 0

The dashed part of the orbit path shows where the satellite is in the earth's shadow,  

DLR